Flight Track Log - Related Links

Times and Time Zones

All times are in EDT time to prevent confusion due to time zone crossing. See the SWA1729 flight status page for this flight to view local times or setup timezone preferences in your user account.

Time Position Orientation Groundspeed Altitude Reporting Facility
EDT Latitude Longitude Course Direction KTS MPH feet Rate Location/Type
22:05 29.6856 -95.2747 342° North 250 288 1,700  Level Houston Center
22:06 29.7089 -95.3508 289° West 259 298 5,300 3,492 Climbing Houston Center
22:07 29.7275 -95.4219 287° West 230 265 8,800 2,705 Climbing Houston Center
22:08 29.7503 -95.5069 287° West 271 312 10,800 2,066 Climbing Houston Center
22:09 29.7781 -95.6089 287° West 330 380 13,000 2,508 Climbing Houston Center
22:10 29.8615 -95.8705 295° West  Level FlightAware Approximate
22:10 29.8053 -95.7142 287° West 342 394 15,900  Level Houston Center
22:11 29.8328 -95.8186 287° West 341 392 18,300 2,311 Climbing Houston Center
22:12 29.8622 -95.9281 287° West 356 410 20,600 2,115 Climbing Houston Center
22:13 29.8967 -96.0581 287° West 365 420 22,600 1,574 Climbing Houston Center
22:14 29.9292 -96.1775 287° West 388 447 23,800 1,574 Climbing Houston Center
22:15 29.9428 -96.3042 277° West 397 457 25,800 2,146 Climbing Houston Center
22:16 29.9481 -96.4292 273° West 394 453 28,200 1,951 Climbing Houston Center
22:17 29.9547 -96.5497 274° West 382 440 29,800 1,623 Climbing Houston Center
22:18 29.9778 -96.6667 283° West 375 432 31,500 1,672 Climbing Houston Center
22:19 30.0019 -96.7806 284° West 369 425 33,200 1,623 Climbing Houston Center
22:20 30.0239 -96.8897 283° West 355 409 34,800 1,240 Climbing Houston Center
22:21 30.0458 -96.9967 283° West 346 398 35,700 545 Climbing Houston Center
22:22 30.0742 -97.1269 284° West 351 404 35,900 98 Climbing Houston Center
22:23 30.0947 -97.2297 283° West 353 406 35,900  Level Houston Center
22:24 30.1172 -97.3411 283° West 353 406 35,900  Level Houston Center
22:25 30.1392 -97.4517 283° West 350 403 35,900 49 Level Houston Center
22:26 30.1619 -97.5628 283° West 351 404 36,000  Climbing Houston Center
22:27 30.1847 -97.6717 284° West 347 399 35,900  Descending Houston Center
22:28 30.2067 -97.7833 283° West 351 404 36,000 49 Climbing Houston Center
22:29 30.2314 -97.9053 283° West 352 405 36,000  Level Houston Center
22:30 30.2525 -98.0147 283° West 350 403 36,000  Level Houston Center
22:31 30.2747 -98.1272 283° West 357 411 36,000  Level Houston Center
22:32 30.2983 -98.2472 283° West 356 410 36,000 -49 Level Houston Center
22:33 30.3178 -98.3461 283° West 357 411 35,900 -50 Descending Houston Center
22:34 30.3417 -98.4611 284° West 362 417 35,900 50 Level Houston Center
22:35 30.3614 -98.5747 281° West 358 412 36,000  Climbing Houston Center
22:36 30.3839 -98.6897 283° West 363 418 35,900 -49 Descending Houston Center
22:37 30.4061 -98.8047 283° West 363 418 35,900  Level Houston Center
22:38 30.4331 -98.9394 283° West 364 419 35,900 45 Level Houston Center
22:39 30.4556 -99.0536 283° West 361 415 36,000  Climbing Houston Center
22:40 30.4775 -99.1706 282° West 356 410 35,900 -49 Descending Houston Center
22:41 30.4992 -99.2839 283° West 359 413 35,900  Level Houston Center
22:42 30.5211 -99.3947 283° West 356 410 35,900  Level Houston Center
22:43 30.5411 -99.5061 282° West 355 409 35,900  Level Houston Center
22:44 30.5619 -99.6172 282° West 355 409 35,900  Level Houston Center
22:45 30.5825 -99.7289 282° West 355 409 35,900  Level Houston Center
22:46 30.6056 -99.8600 282° West 351 404 35,900  Level Houston Center
22:47 30.6303 -99.9703 285° West 355 409 35,900  Level Houston Center
22:48 30.6525 -100.0817 283° West 356 410 35,900  Level Houston Center
22:49 30.6747 -100.1925 283° West 354 407 35,900  Level Houston Center
22:51 30.6967 -100.3050 283° West 358 412 35,900  Level Houston Center
22:52 30.7200 -100.4175 284° West 358 412 35,900  Level Houston Center
22:53 30.7411 -100.5303 282° West 357 411 35,900  Level Houston Center
22:54 30.7636 -100.6447 283° West 366 421 35,900  Level Houston Center
22:55 30.7856 -100.7564 283° West 358 412 35,900  Level Houston Center
22:56 30.8086 -100.8711 283° West 365 420 35,900  Level Houston Center
22:57 30.8306 -100.9822 283° West 360 414 35,900  Level Houston Center
22:58 30.8553 -101.1197 282° West 362 417 35,900  Level Houston Center
22:59 30.8800 -101.2303 285° West 356 410 35,900  Level Houston Center
23:00 30.9019 -101.3450 283° West 361 415 35,900  Level Houston Center
23:01 30.9225 -101.4608 282° West 365 420 35,900  Level Houston Center
23:02 30.9431 -101.5686 283° West 364 419 35,900  Level Houston Center
23:03 30.9642 -101.6850 282° West 366 421 35,900  Level Houston Center
23:04 30.9864 -101.7986 283° West 363 418 35,900  Level Houston Center
23:05 31.0072 -101.9153 282° West 364 419 35,900  Level Houston Center
23:06 31.0297 -102.0314 283° West 365 420 35,900  Level Houston Center
23:07 31.0500 -102.1467 282° West 364 419 35,900  Level Houston Center
23:08 31.0703 -102.2642 281° West 363 418 35,900  Level Houston Center
23:09 31.0917 -102.3828 282° West 365 420 35,900  Level Houston Center
23:09 31.1008 -102.4233 285° West 365 420 35,900  Level Albuquerque Center
23:10 31.1231 -102.5503 282° West 369 425 35,900  Level Albuquerque Center
23:11 31.1444 -102.6661 282° West 365 420 35,900  Level Albuquerque Center
23:12 31.1656 -102.7853 282° West 371 427 35,900  Level Albuquerque Center
23:13 31.1867 -102.9050 282° West 374 430 35,900  Level Albuquerque Center
23:14 31.2083 -103.0219 282° West 371 427 35,900  Level Albuquerque Center
23:15 31.2289 -103.1400 282° West 371 427 35,900  Level Albuquerque Center
23:16 31.2481 -103.2583 281° West 372 428 35,900  Level Albuquerque Center
23:17 31.2697 -103.3761 282° West 371 427 35,900  Level Albuquerque Center
23:18 31.2897 -103.4936 281° West 369 425 35,900  Level Albuquerque Center
23:19 31.3094 -103.6103 281° West 368 423 35,900  Level Albuquerque Center
23:20 31.3344 -103.7506 282° West 367 422 35,900  Level Albuquerque Center
23:21 31.3531 -103.8564 282° West 366 421 35,900  Level Albuquerque Center
23:22 31.3719 -103.9717 281° West 364 419 35,900  Level Albuquerque Center
23:23 31.3917 -104.0878 281° West 364 419 35,900  Level Albuquerque Center
23:24 31.4125 -104.2042 282° West 365 420 35,900  Level Albuquerque Center
23:25 31.4308 -104.3200 281° West 365 420 35,900  Level Albuquerque Center
23:26 31.4533 -104.4589 281° West 364 419 35,900  Level Albuquerque Center
23:27 31.4664 -104.5750 278° West 363 418 35,900  Level Albuquerque Center
23:28 31.4775 -104.6917 276° West 363 418 35,900 -1,171 Level Albuquerque Center
23:29 31.4897 -104.8083 277° West 363 418 33,500 -2,683 Descending Albuquerque Center
23:30 31.5017 -104.9264 277° West 367 422 30,400 -2,705 Descending Albuquerque Center
23:31 31.5144 -105.0422 277° West 363 418 28,000 -2,293 Descending Albuquerque Center
23:32 31.5250 -105.1531 276° West 350 403 25,700 -2,439 Descending Albuquerque Center
23:33 31.5386 -105.2825 277° West 338 389 23,000 -2,410 Descending Albuquerque Center
23:35 31.5481 -105.3914 276° West 339 390 20,800 -2,231 Descending Albuquerque Center
23:35 31.5508 -105.4272 275° West 331 381 20,100 -2,361 Descending Albuquerque Center
23:36 31.5597 -105.5042 278° West 351 404 18,400 -2,208 Descending Albuquerque Center
23:37 31.5708 -105.6197 276° West 349 402 16,200 -2,260 Descending Albuquerque Center
23:37 31.5744 -105.6536 277° West 347 399 15,500 -2,262 Descending Albuquerque Center
23:38 31.5814 -105.7281 276° West 338 389 13,900 -2,262 Descending Albuquerque Center
23:38 31.5839 -105.7608 275° West 331 381 13,200 -2,066 Descending Albuquerque Center
23:39 31.5992 -105.8269 285° West 324 373 11,800 -1,682 Descending Albuquerque Center
23:40 31.6436 -105.9122 301° West 308 354 10,200 -1,317 Descending Albuquerque Center
23:41 31.6822 -105.9881 301° West 274 315 9,100 -1,317 Descending Albuquerque Center
23:42 31.7181 -106.0606 300° West 258 297 7,500 -836 Descending Albuquerque Center
23:43 31.7428 -106.1492 288° West 234 269 7,400 -492 Descending Albuquerque Center
23:44 31.7622 -106.2161 289° West 220 253 6,500 -927 Descending Albuquerque Center
23:45 31.7842 -106.2744 294° West 192 221 5,500 -927 Descending Albuquerque Center
23:46 31.7983 -106.3186 291° West 145 167 4,600 -738 Descending Albuquerque Center
23:47 31.8017 -106.3636 275° West 138 159 4,000 -590 Descending Albuquerque Center
23:49 31.8000 -106.3667 270° West  Level FlightAware Approximate
23:56 31.8072 -106.3764 270° West  Level Estimated
23:57 31.8072 -106.3764 270° West  Level Estimated
23:58 31.8072 -106.3764 270° West  Level Estimated
23:59 31.8072 -106.3764 270° West  Level Estimated

Login

Don't have an account? Register now (free) for customized features, flight alerts, and more!